Regional Weather Roundup
Issued by NWS Sterling, VA

Home | Current Version | Previous Version | Graphics & Text | Print | Product List | Glossary On
Versions: 1 2 3 4 5 6 7 8 9 10 11 12 13 14 15 16 17 18 19 20 21 22 23 24 25 26 27 28 29 30 31 32 33 34 35 36 37 38 39 40 41 42 43 44 45 46 47 48 49 50
000
ASUS41 KLWX 270310
RWRLWX

REGIONAL WEATHER ROUNDUP
NATIONAL WEATHER SERVICE BALTIMORE MD/WASHINGTON DC
1000 PM EST THU FEB 26 2015

Note: "FAIR" indicates few or no clouds below 12,000 feet
with no significant weather and/or obstructions to visibility.
 TC=TEMPERATURE CELSIUS

 * =Non NWS site. Station does not report precipitation (e.g. rain,
    snow, etc.), thunder, or fog.

DCZ001-MDZ009-015-VAZ040>042-051-053>054-270400-
WASHINGTON METRO

CITY           SKY/WX    TMP DP  RH WIND       PRES   REMARKS
WASHINGTON NAT CLOUDY    33  22  63 CALM      30.13R
DULLES         CLOUDY    29  23  78 CALM      30.11R
QUANTICO       MOCLDY    31  25  78 S3        30.14R
COLLEGE PARK*  CLOUDY    32  23  69 SE3       30.12R
LEESBURG*      CLOUDY    32  28  86 CALM      30.12R
MANASSAS*      CLOUDY    28  27  93 CALM      30.12R
GAITHERSBURG*  CLOUDY    28  19  69 CALM      30.13R

$$

MDZ006>007-011-014-270400-
BALTIMORE METRO

CITY           SKY/WX    TMP DP  RH WIND       PRES   REMARKS
BWI AIRPORT    CLOUDY    28  21  75 CALM      30.12R
MD SCIENCE CTR   N/A     30  20  66 MISG      30.11S
MARTIN STATE   MOCLDY    28  25  86 CALM      30.15R
ANNAPOLIS      CLOUDY    28  24  85 CALM      30.13R
FORT MEADE*    CLOUDY    28  23  80 CALM      30.14S

$$

MDZ012-015-019>023-270400-
MARYLAND EASTERN SHORE

CITY           SKY/WX    TMP DP  RH WIND       PRES   REMARKS
OCEAN CITY     PTCLDY    18  16  92 NW3       30.13R FOG
SALISBURY      HAZE      23  18  81 CALM      30.12S VSB 1/4
BAY BRIDGE AP*   N/A     28  21  74 CALM      30.14R
CAMBRIDGE*     PTCLDY    27  23  86 CALM      30.13R
EASTON*        PTCLDY    26  23  88 CALM      30.17R

$$

MDZ017>025-270400-
SOUTHERN MARYLAND

CITY           SKY/WX    TMP DP  RH WIND       PRES   REMARKS
PATUXENT RIVER PTCLDY    21  19  92 CALM      30.13R
ST INIGOES     CLEAR     22  17  81 CALM      30.13R HAZE
LEONARDTOWN*   CLEAR     23  21  93 CALM      30.14R

$$

MDZ003>005-270400-
NORTH CENTRAL MARYLAND

CITY           SKY/WX    TMP DP  RH WIND       PRES   REMARKS
FREDERICK*     CLOUDY    30  19  64 CALM      30.14R
HAGERSTOWN APT CLOUDY    30  19  63 N6        30.09R
WESTMINSTER*   CLOUDY    27  19  74 N3        30.09R

$$

MDZ501>502-270400-
WESTERN MARYLAND

CITY           SKY/WX    TMP DP  RH WIND       PRES   REMARKS
OAKLAND*       CLOUDY    18 N/A N/A NW5       29.97R HAZE
CUMBERLAND*    PTCLDY    32  19  59 W7        30.13R

$$

VAZ025>031-270400-
SHENANDOAH VALLEY

CITY           SKY/WX    TMP DP  RH WIND       PRES   REMARKS
WINCHESTER*    MOCLDY    28  21  74 CALM      30.08S
FRONT ROYAL*   CLOUDY    30  27  86 S3        30.07R
LURAY*         CLOUDY    32  28  86 CALM      30.06R
NEW MARKET*    CLOUDY    32  25  74 N3        30.06R
STAUNTON*      CLOUDY    31  25  80 CALM      30.07R
WAYNESBORO*    CLOUDY    31  26  83 CALM      30.04R

$$

WVZ021-048>050-054>055-270400-
EASTERN WEST VIRGINIA PANHANDLE

CITY           SKY/WX    TMP DP  RH WIND       PRES   REMARKS
MARTINSBURG    MOCLDY    32  23  69 CALM      30.09R
PETERSBURG*    NOT AVBL

$$

VAZ036>039-050-270400-
CENTRAL FOOTHILLS

CITY           SKY/WX    TMP DP  RH WIND       PRES   REMARKS
CHARLOTTESVILL CLOUDY    33  25  72 S3        30.09R
CULPEPER*      CLOUDY    30  27  86 CALM      30.11R
ORANGE*        CLOUDY    30  28  93 CALM      30.11S
GORDONSVILLE*  CLOUDY    28  26  90 CALM      30.10R
WARRENTON*     CLOUDY    28  28 100 CALM      30.10R

$$

VAZ055>057-270400-
NORTH AND CENTRAL PIEDMONT

CITY           SKY/WX    TMP DP  RH WIND       PRES   REMARKS
FREDERICKSBRG* PTCLDY    29  27  92 CALM      30.12R
STAFFORD*      MOCLDY    27  27 100 CALM      30.16R

$$

NCZ024-NYZ072-PAZ021-071-VAZ022-071-270400-
OTHER REGIONAL OBSERVATIONS

CITY           SKY/WX    TMP DP  RH WIND       PRES   REMARKS
NEW YORK CITY  MOCLDY    23  10  57 N9        30.15R WCI  13
PHILADELPHIA   MOCLDY    29  15  56 CALM      30.14R
PITTSBURGH     LGT SNOW  12   6  77 N13       30.18R WCI  -3
ROANOKE        CLOUDY    35  27  72 W6        30.09R
RICHMOND       CLEAR     27  24  89 CALM      30.12R FOG
RALEIGH        MOCLDY    29  26  89 CALM      30.13R FOG

$$

ANZ530>537-270400-
MARINE OBSERVATIONS

STATION/POSITION TIME  TEMP    WIND        PRES
                       AIR SEA DIR/SP/G
                 (UTC) (F)     (DEG/KT/KT) (MB)
THOMAS PT LIGHT  0300   30 31   80/  3/  3 1021.4R
BALT KEY BRIDGE  0200   30      90/  2/  2 1019.9R
COVE POINT       0200   29      CALM  /  1 1019.3R
LEWISETTA        0200   27 32     CALM     1019.5R
SOLOMONS ISLAND  0200      32                N/A

$$




USA.gov is the U.S. government's official web portal to all federal, state and local government web resources and services.